Weather in Annapolis

United States     38°58′41″N   76°29′34″W
temp.,
°C
wind,
m/s
gust,
m/s
humid.,
%
clouds,
%
prec.,
mm/h
press.,
hPa
HPBL,
m
23 january, sat
sat2301:00−1nw610590 0.0 10171166
04:00−1nw586445 0.0 10191189
07:00−1nnw696183 0.1 10201220
10:00−1nw8114226 0.0 10241685
13:000nw7114016 0.0 10231627
16:00+1nw711393 0.0 10241625
19:00−1nw610480 0.0 10251151
22:00−2nw69540 0.0 10271043
24 january, sun
sun2401:00−2nw695548 0.0 1027904
04:00−3nw695489 0.0 1027819
07:00−3nw485452 0.0 1027715
10:00−2nnw46460 0.0 1027668
13:00+2nw243521 0.0 1024851
16:00+3wsw12361 0.0 1022760
19:00+1sse114341 0.0 102278
22:00+1sse225290 0.0 1022133
25 january, mon
mon2501:00+1ese235998 0.0 1019142
04:00+1e345899 0.0 1018167
07:000ene3464100 0.0 1019152
10:00+2ne345597 0.0 1020320
13:00+3ene235398 0.0 1018407
16:00+3e3564100 0.1 1018536
19:00+1e4788100 2.2 1018433
22:00+1ene4697100 4.4 1016298
26 january, tue
tue2601:000ene71095100 8.6 1015516
04:00+1e71095100 2.4 1012455
07:00+2e71196100 5.1 1012402
10:00+3ene4797100 1.5 1013319
13:00+5ene3496100 2.5 1011192
16:00+5ene5897100 0.3 1010215
19:00+4ene479795 0.4 1012187
22:00+4nne1199100 0.6 101529
27 january, wed
wed2701:00+4nnw119892 0.4 101425
04:00+4nnw359755 0.0 1016125
07:00+4nne469896 0.0 1020284
10:00+5nne248747 0.0 1020354
13:00+7wnw137258 0.0 1020684
16:00+7ne127036 0.0 1019505
19:00+5e227754 0.0 101959
22:00+5ene4688100 0.0 1018174